CZ-6A DEB

基本信息
目录编号:
61270
目录名称:
CZ-6A DEB
国际标识:
2024-140SF
轨道中心:
EARTH
物体状态:
在轨
发射日期:
2024-08-06 UTC
轨道信息
数据来源: 国际轨道数据
星历时间: 2026-09-10T06:56:43+0800
半长轴: 7273.865km
偏心率: 0.0144533
轨道倾角: 88.819°
近地点辐角: 7.003°
升交点赤经: 252.682°
平近点角: 353.312°
近地点: 790.596km
远地点: 1000.86km
周期: 102.898分钟
每日圈数: 13.994421
详细信息
发射场:
TSC
轨道高度:
LEO
数据来源:
AOE Integration Group
参考系:
TEME
时间系统:
UTC
历元类型:
SGP4
2D轨道图
3D轨道图
轨道高度分析图
轨道倾角分析图
轨道综合分析图
查看轨道综合分析图